Wetbulb
44.68 44.43 44.10 43.41 43.29 43.47 43.83 43.97 43.85 44.17 44.78 45.52 45.74 45.64 45.52 45.52 45.41 45.39 45.28 44.89 44.29 43.99 43.90 43.86 43.58 43.52 43.75 43.94 44.71 45.25 45.72 45.73 45.48 44.84 44.39 44.75 45.08 45.16 45.16 45.09 45.01 44.90 44.84 44.64 44.60 44.57 44.48 44.32 44.03 43.48 43.01 42.67 42.73 42.75 42.66 42.29 42.25 41.82 41.27 40.89 40.70 40.50 40.23 39.95 39.85 39.55 39.43 39.21 39.10
44.39 43.84 42.93 41.49 41.45 42.29 43.30 43.82 44.14 44.34 44.73 45.41 45.33 45.10 44.83 44.56 44.34 44.41 44.33 43.92 43.23 43.05 43.22 43.36 43.38 43.76 44.22 44.61 45.08 45.56 45.92 45.84 45.61 45.22 44.81 44.77 44.81 44.90 44.83 44.71 44.68 44.60 44.52 44.48 44.45 44.45 44.37 44.45 44.07 43.52 42.96 42.74 42.64 42.49 42.37 42.28 41.86 41.41 40.96 40.45 40.42 40.27 39.85 39.49 39.41 39.33 39.20 38.80 38.84
43.82 43.31 42.98 42.90 43.23 43.42 43.73 44.17 44.83 45.34 45.52 45.48 44.66 43.81 43.20 42.92 43.03 43.02 42.97 42.73 42.66 42.87 43.12 43.41 43.72 44.10 44.49 44.98 45.45 45.65 45.81 45.97 45.81 45.42 45.03 44.46 44.38 44.43 44.31 44.22 44.23 44.07 44.07 44.23 44.32 44.37 44.37 44.37 43.77 43.09 42.58 42.58 42.46 42.15 41.93 42.10 41.68 41.08 40.51 40.01 40.02 39.81 39.49 39.30 39.23 39.19 38.97 38.78 38.80
44.52 43.88 43.40 43.46 43.69 43.92 43.97 43.83 44.46 44.71 44.77 44.26 43.62 42.87 42.13 41.82 41.77 41.77 42.08 42.32 42.59 43.00 43.36 43.78 44.04 44.30 44.56 45.06 45.31 45.51 45.50 44.97 45.18 44.91 44.47 44.10 44.11 44.11 44.15 44.14 44.15 44.20 44.24 44.24 44.28 44.37 44.33 44.45 43.60 42.96 42.61 42.77 42.50 41.93 41.45 41.31 41.10 40.77 40.30 40.02 39.62 39.28 38.90 38.76 38.81 38.72 38.63 38.45 38.42
46.30 45.67 44.92 44.46 44.44 44.37 44.43 44.18 43.95 43.64 43.39 42.93 42.30 41.94 41.81 41.69 41.45 41.49 41.93 42.32 42.87 43.25 43.63 44.09 44.36 44.47 44.62 44.95 45.21 45.29 45.21 44.63 43.56 43.69 44.23 43.94 43.98 44.11 44.37 44.45 44.41 44.41 44.33 44.33 44.45 44.45 44.45 44.32 43.56 43.13 42.90 42.84 41.96 41.42 41.19 41.19 40.97 40.45 40.01 39.76 39.32 38.86 38.49 38.26 38.31 38.40 38.44 38.34 38.43
46.07 45.63 45.11 44.46 44.22 43.73 43.18 43.11 42.74 42.42 41.99 41.70 41.62 41.61 41.80 41.64 41.61 41.89 42.32 42.83 43.17 43.44 43.59 43.31 43.63 43.79 44.17 45.21 45.29 45.18 44.93 44.74 44.15 44.07 44.07 43.86 44.16 44.37 44.50 44.54 44.45 44.45 44.54 44.45 44.50 44.49 44.44 44.10 43.13 42.74 42.68 42.37 41.49 41.20 41.27 41.09 40.34 39.67 39.23 38.76 38.80 38.62 38.48 38.16 38.57 38.71 38.76 38.67 38.68
44.21 44.06 43.92 43.81 43.65 43.11 42.53 42.25 41.94 41.46 41.06 40.90 41.45 41.64 41.71 41.63 41.96 42.32 42.84 43.17 43.40 43.30 43.14 42.69 43.26 43.87 44.49 45.07 45.00 44.68 44.52 44.36 44.41 44.37 44.28 44.20 44.41 44.28 44.20 44.41 44.33 44.45 44.45 44.24 44.37 44.54 44.44 44.19 43.00 42.22 41.69 41.33 41.05 40.68 40.43 40.62 39.67 38.93 38.34 37.89 38.39 38.71 38.67 38.45 38.96 39.18 39.04 38.69 38.62
42.84 42.55 42.47 42.48 42.38 42.08 41.74 41.40 41.24 41.01 40.97 41.05 41.67 41.87 41.73 41.49 41.89 42.42 42.82 43.08 43.36 43.33 43.25 43.29 44.28 44.77 44.93 44.76 44.41 44.22 44.02 43.99 44.28 44.50 44.49 44.49 44.41 44.15 44.03 44.07 44.07 44.16 44.07 44.11 44.20 44.28 44.15 44.06 43.08 42.41 41.86 41.06 40.34 39.98 39.95 39.96 39.27 38.58 38.08 37.81 38.26 38.78 38.94 38.53 38.67 38.90 38.83 38.23 38.15
42.65 42.51 42.16 41.66 41.48 41.21 40.96 40.73 40.77 40.89 41.20 41.51 41.87 41.69 41.38 41.18 41.82 42.39 42.75 43.08 43.24 43.28 43.53 43.89 44.44 44.77 44.86 44.46 44.14 43.89 43.85 43.69 43.86 43.99 44.07 44.15 43.99 43.86 43.78 43.78 43.69 43.69 43.69 43.86 43.90 43.73 43.34 42.93 42.39 41.97 41.50 40.75 40.30 39.80 39.41 39.33 38.97 38.60 38.18 37.85 38.22 38.59 38.92 38.77 38.64 38.58 38.44 38.11 37.76
42.84 42.84 42.48 41.92 41.86 41.31 40.67 40.22 40.30 40.42 40.70 41.20 41.56 41.34 40.53 39.66 40.97 42.15 43.08 43.35 43.24 43.33 43.62 44.15 44.49 44.49 44.33 44.06 43.89 43.77 43.81 43.77 43.65 43.69 43.56 43.48 43.35 43.40 43.44 43.31 43.15 43.06 43.10 43.27 43.52 43.17 42.72 42.11 41.68 41.22 40.77 40.62 40.05 39.46 39.09 38.86 38.28 38.12 38.17 37.86 38.00 38.16 38.22 38.53 38.68 38.55 38.34 38.00 37.67
42.26 42.28 42.05 41.93 41.94 41.07 40.23 40.21 40.28 40.37 40.37 40.77 41.08 40.97 40.62 40.08 41.10 42.15 42.86 43.18 43.29 43.38 43.67 44.23 44.36 44.15 43.83 43.64 43.63 43.64 43.68 43.72 43.56 43.31 43.19 43.06 42.85 42.85 42.94 42.73 42.61 42.52 42.60 42.73 42.93 42.61 42.15 41.45 40.82 40.26 39.94 40.17 39.78 39.27 38.79 38.53 38.04 37.85 37.87 38.29 38.30 38.20 38.22 38.50 38.72 38.56 38.44 38.15 37.76
41.53 41.37 41.11 41.02 40.61 40.08 39.80 40.14 40.55 40.51 40.38 40.40 40.70 41.07 41.36 41.53 42.02 42.18 42.47 42.84 43.30 43.46 43.65 43.97 44.09 43.97 43.69 43.46 43.38 43.35 43.35 43.52 43.23 43.06 42.90 42.73 42.65 42.52 42.32 42.11 42.02 42.02 42.02 42.01 42.16 41.88 41.39 40.83 40.40 39.83 39.56 39.85 39.89 39.71 39.31 39.00 38.77 38.50 38.41 38.83 38.83 38.57 38.38 38.35 38.43 38.33 38.19 37.84 37.46
40.73 40.56 40.42 40.39 39.79 39.37 39.34 39.93 40.32 40.51 40.46 40.59 40.94 41.38 41.70 41.96 42.00 41.98 42.19 42.72 43.12 43.36 43.43 43.41 43.56 43.72 43.73 43.54 43.47 43.35 43.23 42.98 42.90 42.90 42.81 42.69 42.36 41.98 41.56 41.39 41.31 41.39 41.51 41.50 41.62 41.44 41.19 40.73 40.45 40.08 39.92 39.96 40.39 40.38 40.11 39.76 39.37 38.94 38.64 38.67 38.31 37.92 37.57 37.40 37.28 37.19 37.06 36.82 36.38
40.21 40.02 40.02 40.14 39.50 39.21 39.36 39.98 40.52 40.68 40.73 40.93 41.28 41.62 41.84 42.07 41.68 41.62 41.90 42.67 43.05 43.26 43.15 42.84 43.13 43.44 43.72 43.77 43.46 43.18 42.90 42.86 42.98 42.98 42.93 42.81 42.15 41.61 41.18 41.05 41.09 41.26 41.39 41.47 41.55 41.43 41.14 40.85 40.65 40.49 40.29 40.04 40.21 40.28 40.05 39.66 39.22 38.77 38.20 37.76 37.24 36.78 36.48 36.34 36.22 36.03 35.70 35.14 34.92
40.46 40.54 40.39 40.12 39.65 39.50 39.79 40.32 40.67 40.90 41.05 41.25 41.53 41.46 41.39 41.60 41.33 41.38 41.74 42.62 43.01 43.33 43.38 43.12 43.12 43.16 43.33 43.53 43.14 42.90 42.81 43.10 43.10 43.05 42.93 42.52 41.94 41.44 41.19 41.15 41.15 41.28 41.44 41.53 41.53 41.48 41.19 40.91 40.66 40.50 40.18 39.90 39.87 39.71 39.59 39.20 38.75 38.24 37.77 37.27 36.71 36.36 36.13 36.07 35.97 35.59 35.03 34.44 34.27
41.20 41.27 41.05 40.63 40.38 40.34 40.55 40.75 40.85 40.94 41.18 41.45 41.43 41.15 40.96 41.33 41.36 41.34 41.54 42.23 42.98 43.30 43.34 43.31 43.43 43.59 43.48 42.89 42.69 42.73 42.98 43.26 43.09 42.97 42.72 42.48 41.86 41.53 41.36 41.20 41.29 41.45 41.54 41.54 41.66 41.57 41.53 41.28 41.07 40.79 40.43 40.08 39.89 39.62 39.19 38.76 38.42 37.97 37.58 37.31 36.99 36.68 36.41 36.20 36.10 35.71 35.29 34.87 34.47
41.68 41.79 41.68 41.35 41.21 41.24 41.33 41.35 41.21 41.11 41.08 41.29 41.37 41.21 40.99 41.28 41.46 41.21 41.14 41.62 42.67 42.95 43.03 43.03 43.42 43.62 43.39 42.44 42.15 42.48 42.89 43.22 43.01 42.89 42.72 42.60 42.07 41.70 41.54 41.50 41.50 41.62 41.75 41.66 41.66 41.38 41.30 41.29 41.20 40.75 40.22 39.74 39.29 38.83 38.53 38.22 38.04 37.82 37.56 37.35 37.31 36.99 36.67 36.22 36.29 36.06 35.82 35.49 35.18
42.04 42.12 42.01 41.75 41.74 41.76 41.74 41.56 41.29 41.05 40.89 40.92 41.10 41.26 41.31 41.23 41.35 41.27 41.09 41.06 41.95 42.44 42.72 42.93 43.05 42.92 42.68 41.95 41.90 42.15 42.44 42.65 42.52 42.61 42.61 42.61 42.19 41.66 41.30 41.14 41.18 41.22 41.22 41.10 40.90 40.62 40.30 39.94 39.69 39.27 38.89 38.40 38.10 37.84 37.65 37.37 37.18 37.00 36.77 36.75 36.83 36.63 36.36 36.22 36.25 36.22 36.13 35.95 35.70
41.96 41.97 41.89 41.89 41.87 41.65 41.33 40.83 40.36 40.02 39.75 39.67 39.87 40.07 40.24 40.27 40.17 40.21 40.30 40.46 40.85 41.54 42.07 42.11 42.11 42.03 41.66 41.15 41.47 41.58 41.66 41.58 41.55 41.52 41.53 41.49 41.22 40.62 39.98 39.51 39.59 39.51 39.43 39.43 39.20 38.81 38.49 38.12 37.89 37.67 37.53 37.31 37.18 37.08 36.74 36.36 36.04 35.83 35.77 35.87 36.00 36.01 35.95 35.90 35.99 35.94 35.87 35.71 35.76
41.78 41.63 41.50 41.53 41.20 40.80 40.21 39.60 39.03 38.65 38.35 38.28 38.13 38.43 38.70 38.74 38.81 38.93 39.20 39.79 40.21 40.68 40.83 40.84 40.97 40.88 40.60 40.21 40.53 40.61 40.36 39.80 39.78 39.77 39.84 39.87 39.49 38.91 38.37 37.84 37.76 37.68 37.60 37.76 37.79 37.62 37.42 37.20 37.22 37.03 36.78 36.47 36.13 35.95 35.78 35.51 35.16 35.07 35.18 35.55 35.61 35.57 35.57 35.81 35.80 35.78 35.71 35.66 35.78
41.48 41.24 40.92 40.64 40.13 39.62 39.12 38.55 38.05 37.75 37.60 37.67 37.93 38.19 38.50 38.60 38.83 39.17 39.57 40.04 40.42 40.65 40.65 40.59 40.07 39.48 39.04 39.12 39.14 39.17 38.99 38.47 38.46 38.46 38.53 38.57 38.31 37.93 37.60 37.27 37.32 37.44 37.48 37.56 37.46 37.24 36.96 36.76 36.52 36.20 35.93 35.54 35.22 35.22 35.22 35.13 35.00 34.98 35.08 35.26 35.22 35.28 35.30 35.41 35.34 35.43 35.49 35.63 35.71
40.62 40.26 39.91 39.63 39.32 38.82 38.40 38.09 38.01 38.16 38.54 39.00 39.55 39.86 40.09 40.25 40.44 40.79 41.23 41.58 41.77 41.79 41.59 41.21 40.29 39.61 39.14 39.17 39.04 39.12 39.05 38.83 38.17 37.77 37.63 37.87 37.96 37.78 37.62 37.34 37.41 37.49 37.44 37.10 36.84 36.51 36.24 35.99 35.52 35.32 35.11 35.04 34.81 34.54 34.38 34.22 34.48 34.59 34.68 34.59 34.66 34.65 34.60 34.42 34.36 34.62 34.80 35.13 35.22
39.26 39.10 39.10 39.31 39.19 38.76 38.53 38.88 39.47 39.94 40.38 40.85 41.05 41.25 41.40 41.57 41.72 41.96 42.11 42.14 41.83 41.79 41.71 41.33 40.92 40.53 40.07 39.72 39.45 39.28 39.02 38.65 38.04 37.70 37.50 37.60 37.78 37.69 37.62 37.59 37.33 36.99 36.74 36.45 36.26 36.05 35.87 35.71 35.44 35.10 34.74 34.48 34.02 33.75 33.70 33.66 33.70 33.84 33.86 33.82 33.79 33.84 33.78 33.70 33.68 33.78 33.86 34.11 34.27
38.26 38.58 39.03 39.44 39.48 39.60 39.88 40.41 40.72 40.88 40.99 41.14 41.13 40.91 40.77 40.76 40.93 40.91 40.76 40.58 40.31 40.12 40.20 40.45 40.47 40.28 39.81 38.75 38.04 37.45 37.05 37.02 37.15 37.24 37.27 37.24 37.21 37.08 37.06 37.19 36.92 36.56 36.18 36.18 35.98 35.83 35.62 35.38 35.51 35.14 34.59 33.89 33.76 33.62 33.57 33.46 33.29 33.21 33.08 32.94 32.91 33.05 33.28 33.46 33.51 33.36 33.23 33.31 33.38
38.04 38.52 38.93 39.30 39.47 39.76 40.00 40.12 40.07 40.10 40.09 40.13 39.87 39.52 39.20 39.24 39.13 38.88 38.53 38.54 38.59 38.52 38.55 38.74 38.46 38.31 38.04 37.30 36.70 36.14 35.80 35.76 36.03 36.18 36.35 36.37 36.38 36.33 36.47 36.56 36.27 36.03 35.79 35.29 34.82 34.60 34.44 34.18 34.52 34.59 34.39 34.20 34.05 33.72 33.39 32.96 32.52 32.24 32.04 31.84 31.91 32.23 32.57 32.93 33.18 33.15 33.01 33.05 33.06
37.98 38.26 38.35 38.48 38.61 38.65 38.69 38.80 39.04 39.08 39.00 38.87 38.62 38.35 38.16 38.05 37.94 37.54 37.34 37.39 37.52 37.60 37.66 37.51 37.16 36.83 36.61 36.73 36.52 36.28 36.08 36.05 35.94 35.75 35.49 35.48 35.32 35.49 35.75 35.82 35.55 35.55 35.31 34.37 34.14 34.03 34.01 34.05 33.85 33.85 34.04 34.41 33.84 33.36 32.88 32.70 32.09 31.57 31.36 31.19 31.42 31.59 31.80 31.99 32.51 32.92 33.13 33.11 33.01
37.34 37.44 37.46 37.60 37.60 37.67 37.75 38.19 38.44 38.47 38.17 37.86 37.67 37.66 37.52 37.34 37.34 37.19 36.92 36.84 37.25 37.46 37.50 37.45 37.15 36.77 36.46 36.74 36.37 36.11 35.99 36.08 35.96 35.54 35.16 34.82 34.46 34.47 34.78 35.00 34.91 34.87 34.62 33.72 33.50 33.52 33.52 33.53 33.50 33.64 33.84 34.22 33.72 33.18 32.60 32.47 32.14 31.46 31.03 31.04 31.24 31.26 31.29 31.42 31.68 31.79 32.06 32.36 32.63
36.70 36.76 36.86 37.04 36.95 37.10 37.38 37.70 37.73 37.72 37.57 37.03 37.20 37.15 36.86 36.33 36.43 36.53 36.61 36.89 37.09 37.06 36.93 37.02 37.05 37.08 37.07 36.94 36.33 35.75 35.42 35.40 35.57 35.31 34.83 34.25 33.97 33.95 33.93 34.01 33.94 33.77 33.51 32.89 32.79 32.89 32.94 33.06 33.21 33.25 33.35 33.35 33.59 33.01 32.31 32.11 31.94 31.71 31.46 31.24 31.40 31.43 31.40 31.32 31.22 31.14 31.17 31.39 31.64
36.43 36.61 36.74 36.83 36.75 36.91 37.12 37.24 37.15 37.22 37.16 36.78 36.72 36.59 36.62 36.43 36.48 36.42 36.30 36.35 36.21 36.17 36.26 36.46 36.58 36.71 36.76 36.32 36.08 35.70 35.31 34.93 34.73 34.43 33.94 33.36 33.20 33.20 33.23 33.04 33.11 33.03 32.71 32.20 32.14 32.20 32.40 32.60 32.70 32.89 32.97 33.21 33.31 32.96 32.23 31.64 31.72 31.71 31.70 31.56 31.44 31.15 30.86 30.74 30.80 30.72 30.76 30.71 30.73
36.31 36.73 36.89 36.75 36.73 36.78 36.88 36.85 36.91 37.05 37.09 36.96 36.63 36.35 36.36 36.38 36.33 36.20 35.99 35.54 35.37 35.56 35.93 36.22 36.18 35.82 35.42 35.22 35.11 34.76 34.29 34.00 33.60 33.11 32.72 32.01 31.77 31.83 32.02 32.15 32.38 32.41 31.93 31.12 31.19 31.52 31.87 32.28 32.50 32.80 33.11 33.56 32.86 32.39 32.01 31.88 31.93 31.82 31.59 31.26 30.98 30.70 30.44 30.50 30.46 30.43 30.31 30.33 30.20
36.24 36.54 36.69 36.63 36.45 36.36 36.46 36.55 36.66 36.87 36.99 37.03 36.54 36.25 35.99 35.87 35.98 36.01 35.93 35.55 35.56 35.53 35.49 35.42 34.79 34.24 33.92 33.81 33.64 33.29 32.84 32.58 32.12 31.68 31.30 30.82 30.51 30.40 30.69 31.08 31.13 30.86 30.41 29.91 30.49 31.14 31.66 32.27 32.55 32.94 33.26 33.54 32.70 32.25 31.94 31.50 31.52 31.27 31.07 30.77 30.56 30.47 30.51 30.53 30.31 30.16 30.03 29.93 29.72
35.89 36.17 36.25 36.15 35.91 35.99 36.12 36.34 36.53 36.59 36.59 36.38 36.26 36.13 35.97 35.73 36.10 36.27 36.09 35.55 35.18 34.84 34.41 33.96 33.35 32.97 32.72 32.49 32.10 31.74 31.42 31.19 30.72 30.38 30.05 29.59 29.24 29.21 29.49 29.90 30.01 29.67 29.43 29.63 30.47 31.09 31.76 32.25 32.55 32.87 33.03 32.94 32.29 31.94 31.71 31.35 31.28 31.09 30.89 30.76 30.62 30.53 30.45 30.32 30.14 29.96 29.88 29.75 29.68
35.25 35.46 35.57 35.44 35.48 35.61 35.84 36.01 36.12 36.24 36.37 36.24 36.20 36.12 36.01 36.01 36.24 36.00 35.51 34.80 34.34 33.85 33.31 32.71 32.34 32.01 31.74 31.50 31.18 30.96 30.64 30.52 30.16 29.73 29.34 28.89 28.65 28.73 29.04 29.65 30.04 29.68 29.28 29.58 30.35 31.00 31.55 32.03 32.25 32.37 32.39 32.22 32.32 32.24 31.95 31.71 31.48 31.18 30.92 30.64 30.64 30.49 30.34 30.13 29.94 29.88 29.74 29.66 29.68
34.72 34.85 35.05 35.06 35.12 35.39 35.70 35.87 36.07 36.32 36.37 36.26 36.29 36.23 36.13 36.17 35.85 35.31 34.56 34.10 33.78 33.44 32.99 32.55 32.22 31.83 31.63 31.51 30.98 30.71 30.45 30.34 30.27 30.00 29.61 29.21 28.97 29.04 29.46 30.24 30.71 29.97 29.05 29.35 29.93 30.57 31.17 31.50 31.71 31.71 31.58 31.46 32.18 32.38 32.16 31.75 31.30 30.98 30.66 30.47 30.44 30.34 30.24 30.07 29.85 29.77 29.71 29.71 29.70
34.49 34.71 35.00 35.30 35.35 35.56 35.94 36.00 36.31 36.30 36.23 35.93 35.93 35.89 35.99 35.82 35.29 34.72 34.01 33.20 32.74 32.55 32.43 32.24 32.03 31.71 31.60 31.72 31.21 30.67 30.24 29.98 30.12 29.98 29.69 29.48 29.28 29.26 29.62 30.32 30.69 29.78 28.73 28.99 29.47 29.99 30.47 30.85 30.97 30.99 30.85 30.84 31.82 32.08 31.79 31.09 30.57 30.29 30.13 29.92 29.84 29.80 29.79 29.71 29.71 29.71 29.75 29.80 29.71
34.63 35.25 35.98 36.07 35.66 35.77 35.90 35.99 36.10 35.87 35.72 35.80 35.87 35.67 35.46 35.29 34.78 34.32 33.62 32.53 32.07 31.85 31.80 31.64 31.65 31.51 31.35 31.25 31.00 30.53 29.95 29.13 28.86 28.79 28.83 28.70 28.54 28.55 28.91 29.43 29.82 29.17 28.43 28.45 28.98 29.46 29.88 30.24 30.31 30.34 30.42 30.84 31.41 31.48 31.18 30.47 30.01 29.71 29.53 29.28 29.14 29.21 29.30 29.34 29.43 29.57 29.73 29.80 29.74
35.28 35.90 36.36 36.19 35.67 35.58 35.72 35.86 35.69 35.33 35.18 35.36 35.40 35.17 34.85 34.45 34.06 33.77 33.31 32.38 31.97 31.56 31.34 31.41 31.32 31.06 30.71 30.20 29.93 29.68 29.25 28.47 27.80 27.56 27.59 27.54 27.37 27.28 27.52 28.09 28.78 28.63 28.19 28.09 28.56 28.96 29.26 29.63 29.76 29.86 30.08 30.35 30.65 30.68 30.38 29.96 29.56 29.23 29.01 28.74 28.71 28.88 29.08 29.26 29.37 29.47 29.59 29.58 29.51
35.82 36.10 36.19 35.93 35.53 35.45 35.43 35.49 35.17 34.77 34.52 34.53 34.47 34.32 33.95 33.59 33.25 33.03 32.63 31.70 31.19 30.80 30.51 30.64 30.57 30.25 29.68 29.12 28.83 28.77 28.57 27.88 26.98 26.67 26.88 26.91 26.45 26.31 26.57 27.20 28.14 28.39 28.19 27.74 28.04 28.41 28.78 29.08 29.34 29.48 29.64 29.91 29.87 29.89 29.68 29.37 28.97 28.65 28.40 28.23 28.37 28.59 28.95 29.17 29.33 29.34 29.28 29.16 28.80
36.12 36.01 35.90 35.59 35.35 35.10 34.87 34.82 34.45 34.20 33.82 33.62 33.34 33.12 32.83 32.65 32.48 32.36 31.96 31.15 30.58 30.07 29.76 29.58 29.59 29.32 28.77 27.93 27.74 27.82 27.92 27.58 26.61 26.23 26.19 26.30 25.72 25.75 26.17 26.86 27.61 27.80 27.66 27.17 27.35 27.70 28.16 28.55 28.84 29.01 29.28 29.43 29.65 29.47 29.31 28.89 28.27 27.84 27.59 27.47 27.61 27.96 28.40 28.83 28.89 28.84 28.85 28.74 28.46
36.41 36.30 35.93 35.46 35.06 34.59 34.12 33.75 33.59 33.34 33.16 32.72 32.16 31.86 31.69 31.52 31.40 31.37 31.12 30.64 30.05 29.54 29.15 28.90 28.64 28.20 27.61 26.61 26.61 26.79 27.06 27.33 26.84 26.28 25.87 25.44 25.04 25.09 25.63 26.31 26.73 26.87 26.76 26.56 26.65 27.05 27.59 28.19 28.54 28.71 28.95 29.23 29.52 29.48 29.14 28.42 27.63 27.07 26.92 26.98 27.11 27.17 27.44 27.90 28.07 28.10 28.11 28.31 28.56
36.55 36.07 35.50 34.97 34.32 33.67 33.10 32.63 32.59 32.49 32.31 31.84 31.25 30.96 30.78 30.55 30.51 30.43 30.25 29.96 29.51 29.05 28.61 28.25 27.81 27.17 26.44 25.61 25.73 25.72 26.00 26.50 26.65 26.45 25.75 24.92 24.61 24.67 24.89 25.26 25.50 25.84 26.16 26.34 26.45 26.79 27.22 27.77 28.20 28.57 28.79 29.03 29.44 29.43 28.92 27.94 27.13 26.56 26.36 26.45 26.46 26.32 26.27 26.52 26.84 27.11 27.31 27.61 28.18
MSLP
1019.05 1019.29 1019.49 1019.57 1019.57 1019.57 1019.49 1019.33 1019.17 1019.05 1018.97 1018.89 1018.73 1018.61 1018.53 1018.49 1018.33 1018.21 1018.09 1018.05 1018.05 1017.93 1017.93 1017.93 1017.89 1017.93 1017.93 1017.93 1017.81 1017.65 1017.53 1017.45 1017.37 1017.33 1017.29 1017.25 1017.29 1017.33 1017.33 1017.41 1017.49 1017.49 1017.49 1017.49 1017.61 1017.65 1017.69 1017.73 1017.81 1017.93 1018.09 1018.21 1018.33 1018.49 1018.57 1018.65 1018.77 1018.77 1018.81 1018.85 1018.93 1019.05 1019.13 1019.17 1019.25 1019.33 1019.45 1019.57 1019.65
1018.93 1019.05 1019.21 1019.37 1019.45 1019.41 1019.29 1019.13 1018.97 1018.89 1018.77 1018.73 1018.65 1018.61 1018.53 1018.45 1018.33 1018.21 1018.09 1018.05 1018.01 1017.97 1017.93 1017.89 1017.93 1017.93 1017.89 1017.81 1017.73 1017.61 1017.49 1017.33 1017.29 1017.25 1017.25 1017.29 1017.33 1017.41 1017.49 1017.61 1017.65 1017.65 1017.65 1017.65 1017.69 1017.77 1017.81 1017.81 1017.93 1018.01 1018.13 1018.29 1018.41 1018.49 1018.61 1018.73 1018.81 1018.89 1018.93 1018.93 1019.01 1019.13 1019.21 1019.29 1019.41 1019.49 1019.61 1019.69 1019.81
1019.01 1019.05 1019.17 1019.21 1019.17 1019.13 1019.05 1018.93 1018.77 1018.65 1018.61 1018.49 1018.49 1018.49 1018.49 1018.41 1018.33 1018.21 1018.05 1017.97 1017.93 1017.93 1017.89 1017.85 1017.89 1017.89 1017.81 1017.77 1017.65 1017.53 1017.41 1017.25 1017.21 1017.21 1017.21 1017.33 1017.49 1017.61 1017.69 1017.77 1017.77 1017.81 1017.77 1017.77 1017.81 1017.85 1017.93 1017.93 1018.01 1018.05 1018.17 1018.29 1018.37 1018.49 1018.65 1018.81 1018.93 1018.93 1018.97 1019.01 1019.09 1019.21 1019.29 1019.41 1019.49 1019.65 1019.69 1019.77 1019.81
1019.01 1018.97 1018.97 1018.97 1018.93 1018.89 1018.85 1018.77 1018.69 1018.57 1018.49 1018.45 1018.41 1018.41 1018.41 1018.33 1018.21 1018.09 1018.01 1017.93 1017.89 1017.81 1017.77 1017.77 1017.77 1017.77 1017.77 1017.65 1017.53 1017.45 1017.33 1017.21 1017.21 1017.21 1017.33 1017.49 1017.65 1017.73 1017.77 1017.85 1017.89 1017.89 1017.89 1017.89 1017.93 1017.93 1017.93 1018.01 1018.05 1018.09 1018.21 1018.29 1018.37 1018.49 1018.65 1018.85 1018.93 1019.01 1019.05 1019.17 1019.25 1019.33 1019.37 1019.49 1019.61 1019.69 1019.77 1019.81 1019.85
1018.85 1018.77 1018.77 1018.77 1018.77 1018.77 1018.73 1018.65 1018.61 1018.49 1018.45 1018.41 1018.33 1018.33 1018.21 1018.13 1018.05 1017.97 1017.85 1017.77 1017.69 1017.65 1017.65 1017.69 1017.65 1017.65 1017.65 1017.53 1017.41 1017.29 1017.21 1017.21 1017.25 1017.33 1017.45 1017.53 1017.65 1017.77 1017.81 1017.85 1017.85 1017.89 1017.93 1017.93 1017.93 1017.93 1017.93 1017.97 1018.05 1018.13 1018.21 1018.33 1018.41 1018.53 1018.69 1018.81 1018.93 1019.05 1019.13 1019.25 1019.33 1019.45 1019.53 1019.65 1019.69 1019.77 1019.81 1019.85 1019.85
1018.77 1018.69 1018.69 1018.65 1018.65 1018.61 1018.61 1018.57 1018.49 1018.49 1018.45 1018.37 1018.33 1018.17 1018.05 1017.93 1017.89 1017.77 1017.69 1017.61 1017.57 1017.57 1017.65 1017.65 1017.61 1017.53 1017.49 1017.37 1017.21 1017.13 1017.13 1017.21 1017.29 1017.33 1017.41 1017.53 1017.65 1017.73 1017.77 1017.77 1017.81 1017.81 1017.85 1017.89 1017.93 1017.93 1017.93 1017.93 1018.01 1018.09 1018.21 1018.33 1018.41 1018.53 1018.69 1018.81 1018.93 1019.01 1019.13 1019.25 1019.37 1019.45 1019.53 1019.65 1019.69 1019.77 1019.77 1019.77 1019.73
1018.69 1018.61 1018.57 1018.53 1018.53 1018.53 1018.53 1018.49 1018.49 1018.45 1018.41 1018.33 1018.21 1018.05 1017.93 1017.81 1017.77 1017.69 1017.61 1017.49 1017.49 1017.53 1017.57 1017.57 1017.49 1017.37 1017.29 1017.21 1017.05 1017.05 1017.09 1017.21 1017.25 1017.29 1017.33 1017.41 1017.53 1017.65 1017.65 1017.73 1017.77 1017.77 1017.77 1017.77 1017.77 1017.85 1017.89 1017.89 1017.93 1018.05 1018.17 1018.29 1018.41 1018.61 1018.73 1018.85 1018.93 1019.01 1019.09 1019.21 1019.33 1019.37 1019.41 1019.49 1019.53 1019.57 1019.57 1019.57 1019.57
1018.69 1018.61 1018.57 1018.53 1018.49 1018.49 1018.49 1018.45 1018.41 1018.37 1018.33 1018.21 1018.05 1017.93 1017.81 1017.77 1017.73 1017.65 1017.61 1017.53 1017.49 1017.49 1017.49 1017.45 1017.33 1017.21 1017.05 1016.97 1016.97 1017.01 1017.05 1017.09 1017.17 1017.21 1017.29 1017.33 1017.45 1017.49 1017.53 1017.57 1017.65 1017.65 1017.65 1017.69 1017.69 1017.73 1017.73 1017.77 1017.85 1017.93 1018.05 1018.21 1018.41 1018.57 1018.73 1018.81 1018.89 1018.93 1019.01 1019.09 1019.17 1019.21 1019.25 1019.29 1019.33 1019.33 1019.37 1019.37 1019.37
1018.65 1018.61 1018.61 1018.57 1018.53 1018.49 1018.45 1018.41 1018.37 1018.33 1018.21 1018.09 1017.97 1017.89 1017.85 1017.81 1017.77 1017.69 1017.61 1017.57 1017.49 1017.45 1017.41 1017.33 1017.21 1017.09 1016.97 1016.93 1016.93 1016.97 1017.01 1017.01 1017.01 1017.09 1017.21 1017.21 1017.29 1017.33 1017.41 1017.45 1017.53 1017.57 1017.61 1017.65 1017.65 1017.65 1017.65 1017.73 1017.77 1017.89 1018.01 1018.13 1018.29 1018.45 1018.61 1018.69 1018.77 1018.81 1018.89 1018.93 1018.97 1018.97 1019.05 1019.09 1019.17 1019.21 1019.21 1019.21 1019.21
1018.61 1018.57 1018.57 1018.53 1018.49 1018.45 1018.45 1018.41 1018.33 1018.29 1018.21 1018.05 1017.93 1017.93 1017.93 1017.89 1017.81 1017.73 1017.61 1017.49 1017.49 1017.49 1017.41 1017.29 1017.21 1017.05 1016.97 1016.93 1016.89 1016.93 1016.93 1016.97 1016.93 1017.01 1017.05 1017.09 1017.17 1017.21 1017.25 1017.33 1017.41 1017.49 1017.53 1017.57 1017.57 1017.65 1017.69 1017.73 1017.77 1017.81 1017.93 1018.01 1018.13 1018.25 1018.41 1018.49 1018.53 1018.61 1018.65 1018.73 1018.73 1018.73 1018.77 1018.85 1018.89 1018.93 1018.93 1018.93 1018.93
1018.65 1018.61 1018.57 1018.49 1018.45 1018.45 1018.45 1018.37 1018.29 1018.21 1018.13 1018.01 1017.93 1017.85 1017.85 1017.85 1017.77 1017.69 1017.61 1017.57 1017.53 1017.49 1017.33 1017.25 1017.17 1017.05 1017.01 1016.93 1016.93 1016.93 1016.93 1016.93 1016.93 1016.93 1016.97 1017.05 1017.05 1017.09 1017.17 1017.21 1017.29 1017.33 1017.41 1017.49 1017.57 1017.65 1017.69 1017.73 1017.73 1017.77 1017.81 1017.93 1017.97 1018.05 1018.09 1018.21 1018.29 1018.33 1018.33 1018.37 1018.37 1018.37 1018.41 1018.45 1018.49 1018.57 1018.61 1018.61 1018.61
1018.69 1018.65 1018.61 1018.57 1018.53 1018.49 1018.45 1018.33 1018.21 1018.13 1018.05 1017.93 1017.85 1017.81 1017.77 1017.77 1017.69 1017.65 1017.65 1017.65 1017.57 1017.45 1017.33 1017.33 1017.21 1017.09 1017.05 1017.05 1017.05 1017.01 1017.01 1017.01 1017.05 1017.01 1017.01 1017.01 1017.01 1017.01 1017.05 1017.09 1017.17 1017.25 1017.33 1017.41 1017.49 1017.61 1017.65 1017.65 1017.61 1017.61 1017.65 1017.77 1017.81 1017.85 1017.93 1017.97 1018.05 1018.09 1018.13 1018.13 1018.09 1018.13 1018.13 1018.13 1018.17 1018.21 1018.29 1018.33 1018.33
1018.77 1018.69 1018.61 1018.57 1018.57 1018.53 1018.49 1018.33 1018.21 1018.05 1017.97 1017.89 1017.77 1017.73 1017.65 1017.65 1017.65 1017.65 1017.65 1017.65 1017.53 1017.45 1017.37 1017.37 1017.29 1017.17 1017.09 1017.09 1017.13 1017.13 1017.09 1017.05 1017.05 1017.05 1017.05 1017.01 1016.97 1016.97 1016.97 1017.05 1017.05 1017.17 1017.25 1017.33 1017.45 1017.49 1017.49 1017.49 1017.45 1017.45 1017.45 1017.49 1017.57 1017.65 1017.73 1017.81 1017.93 1017.93 1017.93 1017.93 1017.93 1017.93 1017.93 1017.93 1018.01 1018.05 1018.09 1018.13 1018.17
1018.77 1018.73 1018.65 1018.61 1018.57 1018.53 1018.45 1018.29 1018.17 1018.05 1017.93 1017.77 1017.69 1017.65 1017.61 1017.57 1017.65 1017.65 1017.65 1017.61 1017.49 1017.45 1017.41 1017.41 1017.33 1017.25 1017.17 1017.13 1017.17 1017.17 1017.17 1017.09 1017.05 1017.05 1017.05 1016.97 1016.97 1016.97 1016.97 1016.97 1017.01 1017.09 1017.21 1017.29 1017.33 1017.33 1017.33 1017.33 1017.33 1017.33 1017.33 1017.37 1017.45 1017.49 1017.57 1017.69 1017.73 1017.77 1017.77 1017.77 1017.77 1017.77 1017.81 1017.85 1017.89 1017.93 1018.01 1018.05 1018.05
1018.77 1018.69 1018.61 1018.61 1018.57 1018.49 1018.37 1018.25 1018.09 1017.97 1017.89 1017.73 1017.65 1017.61 1017.61 1017.57 1017.61 1017.65 1017.65 1017.53 1017.49 1017.45 1017.41 1017.41 1017.33 1017.29 1017.25 1017.21 1017.17 1017.17 1017.13 1017.09 1017.09 1017.05 1017.05 1017.01 1017.01 1016.97 1016.93 1016.93 1016.93 1016.97 1017.05 1017.17 1017.21 1017.25 1017.29 1017.25 1017.25 1017.29 1017.29 1017.33 1017.33 1017.37 1017.45 1017.53 1017.57 1017.61 1017.65 1017.65 1017.65 1017.65 1017.73 1017.77 1017.77 1017.85 1017.93 1017.97 1017.97
1018.69 1018.61 1018.57 1018.53 1018.49 1018.41 1018.29 1018.21 1018.05 1017.97 1017.85 1017.73 1017.65 1017.57 1017.57 1017.49 1017.49 1017.53 1017.57 1017.53 1017.45 1017.45 1017.41 1017.33 1017.33 1017.29 1017.29 1017.29 1017.25 1017.21 1017.13 1017.09 1017.09 1017.09 1017.05 1017.05 1017.01 1016.93 1016.89 1016.85 1016.81 1016.85 1016.93 1017.01 1017.05 1017.13 1017.17 1017.21 1017.21 1017.21 1017.21 1017.21 1017.21 1017.21 1017.25 1017.33 1017.41 1017.49 1017.49 1017.49 1017.53 1017.57 1017.61 1017.65 1017.69 1017.77 1017.77 1017.85 1017.81
1018.61 1018.57 1018.49 1018.45 1018.33 1018.29 1018.21 1018.05 1018.01 1017.93 1017.81 1017.69 1017.65 1017.53 1017.45 1017.37 1017.37 1017.41 1017.49 1017.49 1017.45 1017.45 1017.41 1017.33 1017.33 1017.33 1017.33 1017.33 1017.37 1017.33 1017.21 1017.17 1017.17 1017.17 1017.13 1017.09 1017.05 1016.93 1016.81 1016.73 1016.69 1016.73 1016.77 1016.81 1016.89 1016.93 1016.93 1017.05 1017.05 1017.13 1017.17 1017.21 1017.21 1017.21 1017.21 1017.21 1017.29 1017.33 1017.41 1017.45 1017.49 1017.49 1017.53 1017.57 1017.61 1017.65 1017.65 1017.69 1017.65
1018.61 1018.49 1018.41 1018.33 1018.29 1018.17 1018.05 1018.01 1017.93 1017.85 1017.77 1017.73 1017.65 1017.57 1017.49 1017.37 1017.33 1017.33 1017.41 1017.49 1017.53 1017.49 1017.49 1017.45 1017.45 1017.45 1017.45 1017.49 1017.41 1017.37 1017.33 1017.29 1017.25 1017.21 1017.25 1017.21 1017.17 1017.01 1016.85 1016.65 1016.61 1016.61 1016.65 1016.73 1016.77 1016.77 1016.77 1016.85 1016.97 1017.05 1017.09 1017.17 1017.17 1017.17 1017.21 1017.21 1017.25 1017.33 1017.37 1017.45 1017.45 1017.49 1017.49 1017.53 1017.49 1017.53 1017.53 1017.49 1017.49
1018.53 1018.45 1018.37 1018.29 1018.21 1018.13 1018.05 1017.97 1017.93 1017.89 1017.81 1017.77 1017.77 1017.77 1017.73 1017.69 1017.69 1017.69 1017.69 1017.73 1017.77 1017.77 1017.69 1017.65 1017.61 1017.57 1017.57 1017.49 1017.45 1017.45 1017.45 1017.45 1017.37 1017.41 1017.41 1017.41 1017.33 1017.13 1016.93 1016.69 1016.61 1016.61 1016.69 1016.73 1016.73 1016.77 1016.77 1016.85 1016.93 1016.97 1017.01 1017.05 1017.05 1017.05 1017.13 1017.21 1017.21 1017.29 1017.33 1017.33 1017.37 1017.41 1017.41 1017.41 1017.41 1017.41 1017.37 1017.33 1017.33
1018.53 1018.45 1018.33 1018.29 1018.21 1018.13 1018.05 1017.97 1017.97 1017.93 1017.89 1017.85 1017.85 1017.85 1017.89 1017.93 1017.97 1017.97 1017.93 1017.93 1018.01 1018.05 1018.01 1017.93 1017.77 1017.69 1017.65 1017.61 1017.61 1017.61 1017.65 1017.65 1017.61 1017.61 1017.61 1017.57 1017.49 1017.29 1017.05 1016.81 1016.77 1016.77 1016.77 1016.77 1016.77 1016.77 1016.77 1016.77 1016.81 1016.89 1016.93 1016.93 1016.93 1016.97 1017.05 1017.09 1017.17 1017.21 1017.21 1017.21 1017.25 1017.29 1017.25 1017.25 1017.25 1017.25 1017.25 1017.25 1017.21
1018.53 1018.49 1018.37 1018.29 1018.25 1018.17 1018.05 1018.05 1018.01 1017.97 1017.93 1017.89 1017.85 1017.85 1017.81 1017.89 1017.93 1017.93 1017.97 1018.01 1018.05 1018.09 1018.09 1018.05 1017.97 1017.89 1017.81 1017.77 1017.73 1017.73 1017.73 1017.77 1017.73 1017.69 1017.69 1017.69 1017.61 1017.41 1017.21 1017.01 1016.89 1016.81 1016.81 1016.77 1016.81 1016.77 1016.77 1016.77 1016.81 1016.85 1016.89 1016.89 1016.93 1016.93 1016.97 1017.01 1017.05 1017.05 1017.09 1017.13 1017.13 1017.17 1017.17 1017.17 1017.17 1017.13 1017.13 1017.09 1017.05
1018.61 1018.53 1018.49 1018.37 1018.33 1018.25 1018.17 1018.09 1018.05 1017.97 1017.93 1017.89 1017.85 1017.81 1017.81 1017.81 1017.85 1017.93 1017.97 1018.01 1018.05 1018.05 1018.09 1018.05 1018.05 1018.05 1017.93 1017.81 1017.73 1017.65 1017.65 1017.69 1017.77 1017.77 1017.77 1017.77 1017.65 1017.53 1017.41 1017.21 1017.05 1016.93 1016.89 1016.89 1016.85 1016.81 1016.81 1016.85 1016.85 1016.89 1016.89 1016.85 1016.85 1016.89 1016.93 1016.97 1016.97 1016.97 1016.97 1016.97 1017.05 1017.05 1017.05 1017.05 1017.05 1017.05 1017.05 1017.01 1017.01
1018.77 1018.69 1018.61 1018.49 1018.41 1018.33 1018.25 1018.17 1018.05 1017.97 1017.93 1017.93 1017.93 1017.93 1017.93 1017.93 1017.97 1018.01 1018.05 1018.09 1018.13 1018.17 1018.17 1018.17 1018.13 1018.05 1017.97 1017.85 1017.77 1017.69 1017.69 1017.73 1017.77 1017.85 1017.89 1017.85 1017.77 1017.65 1017.49 1017.33 1017.17 1017.05 1016.97 1016.93 1016.93 1016.89 1016.85 1016.85 1016.85 1016.85 1016.85 1016.89 1016.85 1016.85 1016.93 1016.93 1016.93 1016.89 1016.89 1016.89 1016.89 1016.93 1016.93 1016.93 1016.93 1016.93 1016.97 1016.97 1016.97
1018.89 1018.77 1018.69 1018.61 1018.49 1018.41 1018.29 1018.21 1018.13 1018.09 1018.09 1018.13 1018.17 1018.17 1018.21 1018.21 1018.21 1018.21 1018.21 1018.25 1018.33 1018.33 1018.33 1018.33 1018.29 1018.21 1018.09 1018.01 1017.93 1017.93 1017.93 1017.93 1017.97 1018.01 1018.01 1017.93 1017.89 1017.77 1017.53 1017.33 1017.17 1017.09 1017.05 1017.05 1017.05 1017.01 1016.93 1016.93 1016.85 1016.85 1016.85 1016.85 1016.81 1016.81 1016.85 1016.85 1016.85 1016.81 1016.77 1016.77 1016.77 1016.77 1016.77 1016.77 1016.77 1016.85 1016.93 1016.93 1016.93
1018.93 1018.89 1018.77 1018.69 1018.61 1018.53 1018.45 1018.37 1018.33 1018.33 1018.33 1018.33 1018.37 1018.45 1018.49 1018.49 1018.49 1018.49 1018.49 1018.49 1018.49 1018.53 1018.53 1018.49 1018.49 1018.45 1018.37 1018.29 1018.21 1018.21 1018.21 1018.21 1018.21 1018.13 1018.05 1017.93 1017.85 1017.73 1017.57 1017.33 1017.21 1017.17 1017.17 1017.13 1017.17 1017.17 1017.09 1017.05 1016.93 1016.85 1016.81 1016.77 1016.73 1016.77 1016.77 1016.77 1016.77 1016.77 1016.77 1016.73 1016.73 1016.69 1016.65 1016.61 1016.69 1016.77 1016.77 1016.77 1016.77
1019.01 1018.93 1018.89 1018.77 1018.73 1018.65 1018.61 1018.53 1018.49 1018.49 1018.49 1018.49 1018.53 1018.57 1018.61 1018.61 1018.61 1018.65 1018.61 1018.61 1018.61 1018.61 1018.61 1018.61 1018.61 1018.57 1018.53 1018.41 1018.37 1018.33 1018.33 1018.29 1018.21 1018.09 1018.01 1017.89 1017.77 1017.69 1017.61 1017.45 1017.37 1017.33 1017.29 1017.21 1017.21 1017.13 1017.05 1016.97 1016.93 1016.85 1016.77 1016.73 1016.69 1016.69 1016.65 1016.65 1016.65 1016.69 1016.69 1016.69 1016.69 1016.69 1016.61 1016.61 1016.57 1016.57 1016.61 1016.61 1016.65
1019.05 1018.97 1018.93 1018.89 1018.77 1018.77 1018.69 1018.65 1018.61 1018.61 1018.61 1018.61 1018.61 1018.61 1018.65 1018.69 1018.69 1018.69 1018.65 1018.61 1018.61 1018.57 1018.53 1018.53 1018.61 1018.61 1018.57 1018.49 1018.45 1018.37 1018.33 1018.21 1018.13 1018.05 1017.93 1017.85 1017.77 1017.65 1017.61 1017.53 1017.49 1017.37 1017.29 1017.21 1017.13 1017.05 1016.93 1016.85 1016.77 1016.77 1016.73 1016.65 1016.61 1016.61 1016.61 1016.57 1016.61 1016.61 1016.65 1016.65 1016.61 1016.61 1016.61 1016.57 1016.53 1016.49 1016.49 1016.49 1016.49
1019.05 1019.01 1018.93 1018.93 1018.85 1018.77 1018.77 1018.73 1018.65 1018.61 1018.61 1018.65 1018.61 1018.61 1018.61 1018.65 1018.61 1018.61 1018.61 1018.53 1018.49 1018.49 1018.49 1018.53 1018.61 1018.61 1018.57 1018.49 1018.45 1018.41 1018.33 1018.21 1018.13 1018.05 1017.93 1017.85 1017.77 1017.73 1017.65 1017.53 1017.41 1017.33 1017.25 1017.17 1017.05 1016.93 1016.81 1016.73 1016.65 1016.61 1016.61 1016.61 1016.61 1016.61 1016.61 1016.57 1016.57 1016.57 1016.57 1016.57 1016.57 1016.53 1016.49 1016.49 1016.49 1016.41 1016.37 1016.33 1016.33
1019.05 1019.01 1018.93 1018.93 1018.85 1018.85 1018.81 1018.77 1018.73 1018.69 1018.69 1018.69 1018.65 1018.61 1018.61 1018.61 1018.53 1018.53 1018.49 1018.49 1018.49 1018.49 1018.49 1018.53 1018.57 1018.57 1018.49 1018.49 1018.41 1018.33 1018.25 1018.21 1018.13 1018.05 1017.97 1017.89 1017.81 1017.73 1017.65 1017.53 1017.41 1017.29 1017.21 1017.13 1017.05 1016.93 1016.77 1016.65 1016.61 1016.61 1016.61 1016.57 1016.57 1016.57 1016.57 1016.57 1016.53 1016.49 1016.49 1016.49 1016.49 1016.45 1016.45 1016.45 1016.37 1016.33 1016.25 1016.21 1016.21
1019.05 1019.01 1018.97 1018.93 1018.93 1018.89 1018.85 1018.81 1018.77 1018.77 1018.69 1018.65 1018.61 1018.61 1018.57 1018.53 1018.49 1018.49 1018.49 1018.49 1018.53 1018.57 1018.57 1018.57 1018.57 1018.53 1018.49 1018.49 1018.41 1018.33 1018.25 1018.21 1018.09 1018.01 1017.93 1017.85 1017.77 1017.69 1017.65 1017.49 1017.33 1017.25 1017.21 1017.17 1017.05 1016.93 1016.77 1016.69 1016.61 1016.61 1016.61 1016.57 1016.61 1016.57 1016.57 1016.57 1016.49 1016.49 1016.49 1016.45 1016.41 1016.37 1016.33 1016.33 1016.25 1016.21 1016.17 1016.13 1016.05
1019.05 1019.01 1019.01 1018.97 1018.93 1018.93 1018.89 1018.85 1018.77 1018.77 1018.77 1018.69 1018.61 1018.61 1018.61 1018.57 1018.57 1018.57 1018.57 1018.61 1018.61 1018.61 1018.61 1018.61 1018.57 1018.53 1018.49 1018.41 1018.33 1018.29 1018.21 1018.13 1018.05 1017.97 1017.93 1017.85 1017.77 1017.65 1017.57 1017.45 1017.33 1017.29 1017.25 1017.21 1017.05 1016.93 1016.77 1016.69 1016.61 1016.61 1016.61 1016.61 1016.61 1016.61 1016.61 1016.57 1016.49 1016.49 1016.41 1016.33 1016.33 1016.29 1016.25 1016.21 1016.13 1016.09 1016.05 1016.05 1015.97
1019.05 1019.01 1019.01 1018.97 1018.97 1018.97 1018.93 1018.89 1018.89 1018.89 1018.85 1018.77 1018.73 1018.65 1018.65 1018.65 1018.69 1018.69 1018.69 1018.73 1018.69 1018.69 1018.65 1018.61 1018.57 1018.49 1018.45 1018.33 1018.25 1018.21 1018.05 1018.01 1017.93 1017.93 1017.85 1017.81 1017.73 1017.65 1017.49 1017.41 1017.29 1017.25 1017.21 1017.17 1017.05 1016.93 1016.81 1016.73 1016.65 1016.65 1016.65 1016.61 1016.61 1016.61 1016.61 1016.53 1016.49 1016.41 1016.33 1016.33 1016.21 1016.21 1016.17 1016.13 1016.05 1016.01 1015.97 1015.97 1015.89
1019.13 1019.05 1019.05 1019.01 1019.01 1019.01 1019.01 1018.97 1018.93 1018.93 1018.93 1018.85 1018.77 1018.73 1018.73 1018.73 1018.77 1018.77 1018.77 1018.77 1018.73 1018.69 1018.65 1018.61 1018.57 1018.49 1018.37 1018.33 1018.21 1018.09 1018.05 1017.97 1017.93 1017.89 1017.85 1017.81 1017.73 1017.61 1017.45 1017.33 1017.21 1017.21 1017.21 1017.17 1017.05 1016.93 1016.85 1016.77 1016.77 1016.73 1016.69 1016.65 1016.61 1016.57 1016.53 1016.45 1016.41 1016.33 1016.21 1016.17 1016.13 1016.09 1016.05 1016.05 1016.01 1015.93 1015.89 1015.85 1015.77
1019.17 1019.13 1019.09 1019.05 1019.05 1019.05 1019.05 1019.05 1018.97 1018.93 1018.89 1018.85 1018.77 1018.77 1018.77 1018.77 1018.73 1018.73 1018.73 1018.77 1018.73 1018.65 1018.61 1018.61 1018.57 1018.49 1018.41 1018.33 1018.25 1018.21 1018.09 1018.01 1017.93 1017.89 1017.81 1017.77 1017.65 1017.53 1017.37 1017.25 1017.21 1017.25 1017.29 1017.21 1017.09 1017.01 1016.93 1016.85 1016.81 1016.77 1016.73 1016.65 1016.57 1016.45 1016.37 1016.33 1016.29 1016.21 1016.09 1016.05 1015.97 1015.97 1015.97 1015.93 1015.93 1015.89 1015.85 1015.77 1015.69
1019.21 1019.17 1019.13 1019.09 1019.09 1019.05 1019.01 1019.01 1018.93 1018.93 1018.85 1018.81 1018.77 1018.77 1018.77 1018.77 1018.77 1018.73 1018.73 1018.77 1018.73 1018.69 1018.61 1018.61 1018.57 1018.49 1018.41 1018.33 1018.33 1018.25 1018.17 1018.09 1017.97 1017.93 1017.85 1017.77 1017.65 1017.49 1017.37 1017.25 1017.21 1017.25 1017.33 1017.25 1017.17 1017.05 1017.01 1016.93 1016.85 1016.77 1016.73 1016.61 1016.49 1016.37 1016.25 1016.21 1016.13 1016.05 1015.97 1015.93 1015.85 1015.85 1015.85 1015.85 1015.81 1015.77 1015.69 1015.65 1015.53
1019.25 1019.21 1019.21 1019.13 1019.05 1019.05 1019.01 1018.97 1018.93 1018.89 1018.85 1018.85 1018.85 1018.81 1018.77 1018.77 1018.77 1018.73 1018.73 1018.77 1018.77 1018.69 1018.61 1018.61 1018.53 1018.49 1018.41 1018.33 1018.29 1018.25 1018.21 1018.17 1018.05 1017.97 1017.93 1017.81 1017.73 1017.57 1017.45 1017.33 1017.29 1017.29 1017.29 1017.29 1017.21 1017.17 1017.05 1016.97 1016.93 1016.81 1016.69 1016.57 1016.41 1016.25 1016.17 1016.09 1016.05 1015.97 1015.93 1015.81 1015.77 1015.73 1015.73 1015.73 1015.65 1015.61 1015.53 1015.45 1015.33
1019.25 1019.21 1019.21 1019.13 1019.05 1019.05 1019.05 1018.97 1018.93 1018.89 1018.89 1018.89 1018.85 1018.81 1018.77 1018.77 1018.73 1018.73 1018.73 1018.77 1018.77 1018.69 1018.61 1018.57 1018.49 1018.45 1018.41 1018.41 1018.33 1018.29 1018.25 1018.25 1018.17 1018.05 1017.97 1017.93 1017.81 1017.69 1017.57 1017.45 1017.33 1017.33 1017.33 1017.33 1017.29 1017.21 1017.05 1016.97 1016.89 1016.77 1016.65 1016.49 1016.33 1016.21 1016.05 1016.05 1015.93 1015.85 1015.77 1015.73 1015.65 1015.61 1015.57 1015.53 1015.49 1015.37 1015.33 1015.25 1015.21
1019.21 1019.21 1019.17 1019.09 1019.05 1019.05 1019.05 1019.01 1018.97 1018.93 1018.89 1018.85 1018.85 1018.81 1018.81 1018.77 1018.73 1018.73 1018.77 1018.85 1018.81 1018.73 1018.65 1018.61 1018.53 1018.49 1018.49 1018.49 1018.41 1018.33 1018.33 1018.33 1018.25 1018.17 1018.05 1017.97 1017.93 1017.81 1017.69 1017.53 1017.45 1017.37 1017.33 1017.33 1017.29 1017.21 1017.09 1016.97 1016.89 1016.77 1016.65 1016.49 1016.29 1016.09 1016.01 1015.93 1015.81 1015.77 1015.65 1015.61 1015.49 1015.45 1015.41 1015.33 1015.25 1015.17 1015.09 1015.05 1015.01
1019.21 1019.13 1019.13 1019.09 1019.09 1019.09 1019.05 1018.97 1018.97 1018.93 1018.93 1018.89 1018.85 1018.85 1018.81 1018.81 1018.77 1018.77 1018.85 1018.89 1018.89 1018.85 1018.77 1018.69 1018.61 1018.61 1018.61 1018.57 1018.49 1018.37 1018.33 1018.29 1018.29 1018.21 1018.13 1018.05 1018.01 1017.93 1017.81 1017.69 1017.53 1017.45 1017.41 1017.37 1017.33 1017.21 1017.09 1016.97 1016.85 1016.73 1016.61 1016.49 1016.25 1016.05 1015.93 1015.81 1015.77 1015.69 1015.61 1015.53 1015.41 1015.33 1015.21 1015.13 1015.05 1014.93 1014.89 1014.81 1014.77
1019.17 1019.13 1019.13 1019.13 1019.09 1019.05 1019.05 1018.97 1018.97 1018.97 1018.93 1018.93 1018.93 1018.89 1018.89 1018.89 1018.89 1018.93 1018.93 1018.93 1018.89 1018.89 1018.81 1018.77 1018.69 1018.65 1018.65 1018.61 1018.53 1018.41 1018.29 1018.21 1018.21 1018.21 1018.21 1018.13 1018.09 1018.05 1017.93 1017.77 1017.65 1017.49 1017.45 1017.37 1017.29 1017.21 1017.05 1016.93 1016.77 1016.69 1016.53 1016.33 1016.17 1015.97 1015.89 1015.77 1015.73 1015.65 1015.49 1015.37 1015.25 1015.13 1015.05 1014.93 1014.89 1014.77 1014.69 1014.61 1014.49
1019.17 1019.13 1019.13 1019.13 1019.13 1019.09 1019.05 1019.05 1018.97 1018.97 1018.97 1018.93 1018.93 1018.93 1018.93 1019.01 1018.97 1018.97 1018.93 1018.93 1018.89 1018.89 1018.85 1018.77 1018.73 1018.73 1018.73 1018.69 1018.57 1018.45 1018.33 1018.25 1018.17 1018.21 1018.21 1018.21 1018.13 1018.05 1017.97 1017.89 1017.73 1017.57 1017.41 1017.33 1017.21 1017.13 1017.01 1016.85 1016.73 1016.61 1016.49 1016.33 1016.09 1015.93 1015.81 1015.77 1015.65 1015.49 1015.33 1015.21 1015.13 1015.05 1014.93 1014.77 1014.73 1014.61 1014.53 1014.41 1014.29
Wind_Speed
2 1 1 2 3 3 4 4 4 4 4 4 5 5 5 5 5 5 4 3 3 3 2 1 1 1 1 1 1 2 3 4 5 6 6 7 7 7 7 8 8 9 9 9 9 8 8 8 7 6 5 5 6 6 5 5 5 5 5 5 5 5 6 6 5 5 5 4 3
1 2 2 2 2 3 3 3 3 3 4 3 4 4 4 4 5 4 4 3 2 2 1 1 1 1 2 2 2 2 3 5 6 7 7 8 8 8 9 9 9 9 9 9 8 7 6 7 6 6 5 5 5 5 5 5 5 5 6 6 5 5 5 5 4 4 4 3 2
2 2 2 2 3 3 3 3 4 5 5 5 4 4 4 4 4 4 3 2 2 1 1 1 2 2 3 3 3 3 3 4 6 7 8 9 9 9 9 8 8 8 8 7 7 7 6 6 6 5 4 4 5 5 5 5 5 5 5 6 5 4 4 3 3 3 2 2 2
3 3 3 3 4 4 4 4 5 6 6 5 4 4 4 4 3 3 3 2 2 2 3 3 3 3 3 3 3 4 4 5 7 8 9 9 9 8 8 8 8 7 7 7 7 7 7 6 5 4 4 5 6 5 5 4 5 4 4 4 4 3 3 3 2 2 2 2 3
4 3 3 3 4 5 5 5 6 6 6 4 4 4 4 4 3 3 3 3 3 3 4 4 4 4 4 4 4 5 6 8 8 8 8 8 8 8 7 8 7 7 7 7 7 7 7 6 5 4 4 5 5 5 5 6 5 5 4 3 3 3 2 2 2 2 2 3 3
4 4 4 4 5 5 5 5 6 6 6 4 5 5 5 3 3 3 3 3 4 4 5 5 5 5 5 5 5 6 7 8 8 8 8 8 7 7 7 7 7 7 7 7 7 7 7 6 5 4 4 4 5 5 6 6 6 5 4 3 3 3 3 3 3 3 4 4 5
5 5 5 5 5 5 5 5 5 5 5 5 6 7 6 4 4 4 5 4 4 5 5 5 6 6 6 6 6 7 7 7 7 8 8 8 8 8 7 7 7 7 7 7 8 7 6 6 5 4 4 4 4 5 6 6 5 5 4 4 3 3 4 4 4 4 5 7 7
5 6 6 6 6 6 6 6 6 5 5 5 6 7 7 6 5 5 5 5 5 5 5 5 6 6 6 6 7 7 8 8 8 7 7 7 8 8 8 7 7 7 7 7 7 7 6 5 4 4 4 4 4 4 5 6 5 5 5 5 4 4 4 5 5 5 6 8 9
5 5 6 6 6 6 6 6 6 6 6 6 7 6 6 6 6 6 6 5 6 6 6 5 6 7 7 7 8 7 7 7 8 8 7 7 8 8 8 7 7 7 7 7 7 7 6 4 4 4 4 4 4 5 6 7 7 7 6 6 5 5 6 6 6 7 8 8 10
6 6 5 5 6 6 6 6 6 6 7 7 7 6 6 6 6 6 6 5 5 6 6 6 6 7 7 8 8 8 7 7 7 8 8 8 8 8 7 7 7 7 6 6 6 6 5 4 4 4 5 5 6 7 8 9 9 9 8 6 7 8 8 8 9 9 9 9 10
7 6 6 6 6 5 5 5 5 6 6 7 7 6 6 6 7 6 6 5 6 6 7 6 7 7 7 7 7 7 7 6 6 7 7 7 8 8 7 7 7 7 7 6 5 5 4 4 5 6 6 6 7 8 9 10 10 10 9 8 8 9 10 10 10 10 10 10 11
7 7 6 6 6 6 6 6 6 6 6 7 7 7 6 7 7 7 6 6 7 7 7 6 6 6 6 5 5 6 6 6 6 6 6 7 7 8 7 7 7 7 7 6 6 5 5 5 6 7 8 8 7 7 8 10 10 10 9 9 9 9 9 10 10 9 9 9 10
7 7 7 7 7 7 7 7 6 6 6 7 7 7 6 6 6 6 6 7 7 7 6 6 5 5 5 5 5 5 5 6 6 6 6 7 7 7 7 7 7 7 6 6 6 6 5 6 7 8 8 8 7 6 7 8 9 9 9 9 9 9 9 10 10 9 9 9 9
7 7 7 7 7 7 7 7 7 6 7 8 7 7 6 6 5 6 6 7 7 6 5 5 5 4 5 6 6 6 6 6 6 6 6 6 7 7 7 6 6 6 6 6 6 6 6 6 6 7 7 7 7 6 7 7 8 8 9 9 9 9 9 9 9 9 9 9 9
8 8 8 7 7 7 7 8 7 7 7 8 7 6 5 5 5 5 6 7 7 6 5 5 4 4 5 5 5 6 6 6 6 6 6 6 6 7 7 6 6 6 6 6 6 6 6 6 6 6 6 6 7 7 7 7 7 8 8 9 9 9 9 9 8 8 8 8 9
8 8 8 8 8 8 8 8 7 7 7 8 7 6 5 5 5 5 6 7 6 5 4 5 4 4 4 4 5 5 5 5 6 6 6 6 7 7 7 6 6 6 7 7 7 7 7 6 6 6 6 7 7 7 7 7 7 7 8 8 8 8 8 8 8 7 7 8 8
9 9 9 9 9 10 10 9 8 8 8 9 8 6 6 5 5 5 6 6 5 5 5 5 4 4 3 3 3 3 4 4 5 5 6 6 6 6 6 6 6 6 7 7 7 7 7 6 6 6 6 7 7 7 7 6 6 6 6 7 7 7 7 7 7 7 7 7 8
10 10 10 10 10 11 11 11 11 10 10 10 9 7 6 5 4 4 5 5 4 4 4 4 3 3 4 4 3 3 3 4 4 5 5 6 6 6 6 6 5 5 5 6 6 6 5 5 5 4 5 5 5 5 5 5 5 5 5 5 6 6 6 6 6 6 6 7 7
10 10 10 11 11 12 12 12 11 11 11 10 9 7 6 5 4 4 3 3 4 4 4 4 4 4 4 4 4 4 4 4 5 5 6 7 7 7 6 4 4 4 4 4 4 4 3 3 3 3 3 3 3 3 3 3 4 4 4 5 5 5 6 6 6 6 6 6 7
9 10 10 10 11 11 11 11 10 10 9 8 7 6 6 6 6 6 6 5 5 6 6 6 6 5 5 4 4 4 4 4 5 6 7 7 8 7 5 3 2 2 2 2 2 2 1 1 1 1 2 2 2 2 2 3 3 3 4 4 4 5 5 6 6 6 6 6 7
9 9 10 10 10 10 9 9 8 7 6 6 5 5 5 5 5 5 5 6 6 6 6 6 6 6 5 5 5 5 4 4 4 5 6 7 7 6 5 3 2 2 1 1 1 1 1 1 1 1 1 1 1 2 2 2 3 3 4 4 4 5 5 5 6 6 6 6 7
9 9 9 9 9 8 8 7 6 5 5 5 5 5 5 5 5 5 5 5 5 5 5 5 5 5 4 4 4 4 3 3 3 4 5 5 5 5 5 4 3 2 2 2 2 2 2 1 1 1 0 1 1 1 2 2 3 3 4 4 4 5 5 5 5 5 6 6 7
8 8 8 7 7 7 6 6 6 7 7 8 8 8 8 8 8 7 7 7 6 6 6 5 5 5 4 4 4 4 4 4 4 4 4 5 5 5 5 4 3 3 3 3 3 3 2 2 1 1 0 1 1 2 2 3 3 4 4 4 5 5 5 5 5 5 5 6 6
7 7 6 6 7 7 7 8 8 9 9 10 10 10 10 10 10 10 10 10 9 9 8 7 7 6 6 6 5 5 5 5 4 5 5 5 5 5 5 4 4 4 4 3 3 3 3 2 2 1 1 1 2 2 3 3 3 4 4 4 5 5 5 5 5 5 5 5 5
6 6 6 6 7 8 9 9 10 10 10 10 10 10 11 11 10 10 10 10 10 10 9 9 8 8 8 7 7 6 5 4 5 5 6 6 6 6 5 4 4 4 3 3 4 4 3 2 3 2 2 2 2 3 3 3 3 4 4 4 4 5 5 6 5 5 5 5 5
6 6 7 7 8 9 9 9 9 9 9 9 10 10 10 9 9 9 9 9 9 9 9 9 8 8 7 7 7 6 5 4 5 5 6 6 6 6 6 4 4 3 3 3 3 3 3 3 3 3 3 3 3 3 3 3 3 3 3 3 4 4 5 5 6 6 5 5 5
6 6 7 7 8 8 9 8 8 8 8 8 8 8 8 7 7 7 8 7 8 8 7 7 7 6 5 5 6 6 5 5 5 5 5 5 6 6 5 4 3 3 3 4 4 4 4 4 4 3 3 3 3 3 3 3 3 2 3 3 3 4 4 5 6 6 6 6 6
6 6 7 7 8 8 8 7 7 7 7 7 6 6 6 6 6 6 6 6 6 6 6 5 5 4 4 4 4 5 5 5 5 5 5 5 5 5 5 5 4 4 5 6 6 6 6 5 5 5 4 3 3 2 2 3 2 2 2 2 3 4 4 5 6 6 7 8 8
5 6 6 7 7 7 6 6 6 6 5 5 5 4 4 5 5 5 5 5 5 5 4 3 3 3 3 4 4 4 4 4 4 4 4 5 5 5 6 6 6 6 6 7 7 7 7 7 7 6 6 5 3 1 1 1 2 2 2 2 3 4 5 5 6 7 8 8 9
5 5 6 6 6 5 5 5 5 4 4 3 4 4 4 5 5 5 5 5 4 4 3 3 3 3 3 4 4 4 4 4 4 4 4 5 6 6 6 7 6 6 6 8 9 9 9 8 8 7 7 6 3 1 1 1 2 2 3 3 4 5 6 7 8 9 9 9 9
4 4 5 5 4 4 4 4 3 3 3 3 4 4 5 5 5 5 5 4 4 3 3 3 3 3 4 4 4 4 4 4 4 4 5 5 6 6 7 7 7 6 7 9 9 9 9 8 8 8 7 6 3 1 1 2 2 3 4 5 6 7 8 8 9 10 10 10 10
3 3 3 3 3 3 3 3 3 3 4 4 5 5 6 6 6 5 5 4 4 4 4 4 4 5 5 5 4 4 4 5 4 4 5 5 6 6 7 6 6 6 7 9 10 10 9 9 8 8 7 6 3 2 2 3 4 5 6 7 8 9 9 8 9 10 11 11 11
1 2 2 2 2 2 2 3 3 4 4 5 6 6 6 6 6 5 5 4 4 4 5 5 6 6 6 6 6 6 5 5 5 5 5 5 5 6 6 5 4 5 7 10 10 10 9 9 8 8 8 7 5 4 4 4 5 6 7 8 9 9 9 9 9 10 10 11 11
0 1 1 2 2 2 3 3 4 4 5 5 6 6 6 6 6 5 5 4 4 5 5 5 6 6 6 6 6 6 6 6 6 6 6 5 6 6 6 5 4 5 8 10 10 10 10 9 9 9 9 9 6 6 6 6 6 7 8 9 9 9 9 9 10 10 10 11 10
1 1 2 3 3 3 4 4 4 5 5 6 6 6 6 6 6 6 5 5 5 5 6 6 6 6 6 5 5 6 6 6 6 6 6 6 6 6 6 5 5 6 8 10 10 10 10 10 10 11 11 9 7 7 7 7 8 8 9 10 10 10 9 9 9 9 10 10 10
1 2 3 4 4 4 5 5 5 5 5 6 6 6 6 6 6 5 5 5 5 6 6 6 6 6 6 6 5 5 5 6 6 6 6 5 6 6 6 6 6 7 8 9 10 10 11 11 11 12 12 10 8 7 7 7 7 8 9 10 10 10 10 9 9 9 9 9 10
1 2 3 4 4 5 5 5 5 5 5 5 6 6 6 6 5 5 5 5 6 6 7 7 6 6 6 6 6 5 5 5 5 5 5 5 5 5 6 6 6 7 8 9 10 11 11 12 12 12 12 10 8 8 8 7 7 7 8 9 9 9 9 9 9 9 9 9 9
1 2 3 4 4 4 5 5 5 5 5 5 5 5 5 5 5 5 5 4 5 6 7 7 6 6 6 6 6 6 5 4 4 5 5 5 4 5 5 6 6 7 7 9 10 11 12 12 13 13 12 10 9 9 8 7 7 7 8 8 8 9 9 8 8 8 8 9 10
2 2 3 3 4 4 4 4 4 4 5 5 5 5 5 5 5 4 4 4 4 5 6 6 6 6 6 6 6 5 5 4 4 4 4 4 4 5 5 6 6 7 7 9 10 12 12 13 13 13 12 10 9 8 7 6 7 7 8 8 8 9 9 8 8 7 8 9 11
2 2 3 3 3 4 4 4 4 4 4 4 4 4 4 4 4 4 4 4 4 4 4 5 5 5 5 5 5 5 5 4 3 3 4 4 4 5 5 6 6 7 8 9 11 12 13 13 14 14 13 10 9 7 6 6 6 7 8 7 7 8 8 8 8 7 8 9 10
2 2 2 2 3 3 3 3 3 3 3 3 3 3 3 3 3 4 4 4 4 4 4 4 5 5 5 4 4 4 5 5 4 4 4 4 5 5 5 5 6 7 8 9 11 12 13 14 14 14 12 10 8 7 6 5 6 7 8 8 8 8 8 8 8 8 8 8 9
Wind_Direction
21 339 267 254 260 267 272 276 279 281 284 288 290 291 290 288 285 283 282 283 282 284 291 304 304 295 278 253 212 151 114 98 90 86 82 82 84 87 89 88 88 88 89 91 92 90 88 87 88 86 85 83 84 85 87 90 93 94 94 94 94 93 92 92 92 93 94 96 98
301 269 252 244 248 257 269 280 284 283 280 277 279 281 282 280 278 278 278 277 274 270 267 250 227 217 210 201 181 150 124 110 103 95 89 83 84 85 87 91 94 97 98 99 98 96 95 94 94 94 95 94 94 94 94 96 98 99 99 99 99 98 96 96 100 105 111 117 134
293 285 280 272 273 277 282 287 288 287 285 281 276 273 272 269 267 267 267 263 251 231 210 193 195 197 195 187 170 146 126 113 105 97 93 90 91 94 96 99 101 103 103 103 103 103 102 101 99 99 101 104 105 103 102 100 100 101 100 100 100 101 102 106 115 123 133 155 182
292 287 284 284 285 284 281 277 281 282 282 283 280 274 266 259 254 250 247 239 218 202 194 191 192 194 191 180 158 138 120 106 99 97 98 102 105 107 109 111 111 111 111 111 111 112 111 110 106 106 109 113 112 112 112 113 111 107 104 103 102 103 108 117 132 147 169 194 207
290 283 277 275 275 273 271 268 271 273 275 278 279 274 265 255 243 234 224 212 200 193 192 194 193 191 184 172 148 129 113 105 103 106 111 115 119 121 123 124 124 124 123 123 123 122 121 119 116 116 119 121 120 121 124 127 123 118 114 111 113 118 129 148 168 185 199 208 214
284 282 277 270 268 266 264 261 262 265 269 273 272 270 266 255 238 221 211 202 193 190 190 195 195 188 179 167 143 125 115 112 118 123 127 129 133 136 137 137 139 139 138 137 135 133 131 129 125 125 127 128 127 129 132 134 130 128 128 129 140 154 169 183 194 203 210 216 221
277 278 277 273 269 265 262 260 260 261 264 266 266 265 262 253 236 220 210 198 190 188 191 196 195 188 177 162 140 129 126 130 134 137 139 143 147 150 152 153 153 153 152 150 148 147 144 141 136 136 136 134 130 134 138 140 139 140 144 153 167 180 190 197 204 211 217 223 226
275 274 273 274 272 269 266 265 265 265 264 263 263 262 257 248 233 220 209 199 195 194 195 198 194 186 172 153 141 139 141 145 146 148 151 152 156 158 161 162 163 163 162 161 160 158 155 149 145 142 140 137 136 143 149 152 153 158 166 175 185 193 199 204 209 215 221 225 228
278 274 271 271 269 268 267 267 267 267 267 267 264 260 253 243 231 220 210 204 201 199 198 200 192 180 164 149 147 150 153 155 155 157 160 163 164 165 167 169 170 170 169 170 168 165 160 152 148 144 143 145 149 156 162 167 171 176 182 188 196 202 206 210 214 218 222 225 228
283 282 279 275 271 269 270 272 269 267 266 267 264 257 247 237 228 222 215 208 202 201 201 199 188 175 162 155 156 159 163 164 163 165 168 170 170 171 171 173 176 177 177 178 174 169 163 156 153 152 154 158 163 168 173 179 184 187 191 196 201 206 210 213 216 218 221 224 227
286 287 287 285 284 284 282 279 273 267 263 263 259 251 240 230 226 222 218 210 205 204 204 200 187 175 167 166 166 168 169 171 171 173 175 176 176 177 177 180 183 184 184 181 178 174 171 170 167 167 170 174 177 180 184 188 191 195 198 204 207 211 214 217 218 220 222 225 228
290 292 292 292 295 295 291 283 276 269 262 258 253 245 235 227 222 219 216 212 210 208 206 204 192 179 172 174 175 175 175 177 178 180 182 184 184 185 186 187 190 191 190 185 182 183 185 188 183 183 183 185 188 191 194 196 200 205 211 217 220 223 225 227 226 226 228 229 231
298 299 299 300 301 298 293 284 278 271 263 257 250 243 235 228 221 216 214 214 213 211 208 208 201 188 178 179 181 183 184 185 186 189 192 193 192 192 193 194 195 196 195 192 192 194 197 199 196 195 194 195 199 202 203 205 211 217 224 229 232 234 236 237 236 235 235 235 236
304 304 304 306 306 301 294 287 282 275 267 260 252 245 238 231 221 216 216 218 218 214 209 208 211 203 192 187 188 190 192 192 195 199 203 203 200 199 199 199 199 200 200 201 203 206 209 209 208 207 207 209 214 216 216 216 222 228 232 237 238 239 241 241 240 237 235 233 235
309 309 309 310 309 304 298 294 289 283 274 266 256 247 238 231 220 217 220 225 224 220 213 209 214 214 209 202 198 196 197 198 204 209 213 212 209 207 205 205 203 204 205 208 210 214 218 221 221 222 225 230 236 237 235 231 234 237 240 242 243 243 243 243 240 235 230 228 230
314 315 316 316 313 310 306 302 298 291 283 274 262 249 236 228 218 217 221 227 227 224 219 217 219 220 220 219 215 210 207 209 214 219 223 223 219 216 213 211 210 211 213 215 217 220 224 228 232 237 243 250 256 259 259 253 250 248 249 249 249 248 248 247 242 235 229 225 228
319 320 320 320 318 316 314 311 308 302 294 285 272 255 238 226 218 216 219 225 228 227 226 226 231 237 242 241 237 232 228 229 231 235 238 239 234 230 226 223 222 222 223 225 227 230 232 235 240 246 253 261 268 273 276 275 270 265 262 260 258 256 254 253 249 242 235 231 234
323 324 324 324 323 321 320 318 316 311 305 298 287 274 259 246 236 230 228 231 237 240 242 245 259 270 273 269 263 258 256 257 257 260 263 264 259 252 246 240 236 235 234 235 237 241 245 250 251 253 257 262 269 276 282 286 284 280 275 271 266 262 259 257 254 251 246 243 246
325 326 327 327 327 326 325 324 322 319 316 311 306 303 302 305 305 302 296 288 285 284 286 291 295 293 288 282 278 276 277 280 285 288 288 285 277 271 265 259 253 247 243 242 243 247 253 260 262 263 264 268 274 279 283 284 282 279 274 269 266 262 259 257 255 254 254 254 258
328 329 329 330 329 329 328 328 328 327 327 327 328 330 335 342 345 345 343 340 334 324 317 312 313 314 314 310 303 300 301 304 306 302 297 290 284 282 282 283 275 260 249 247 251 260 273 288 295 295 293 291 291 288 284 275 267 263 261 261 260 259 258 258 258 258 258 260 263
332 332 332 332 332 332 333 334 337 340 344 350 356 3 8 11 11 6 359 354 347 337 328 326 330 334 335 332 322 315 312 312 307 301 295 291 292 296 304 311 310 307 305 319 344 353 354 356 350 340 328 311 297 288 279 270 261 256 254 254 256 257 259 262 263 264 264 265 266
337 336 336 336 339 341 343 347 354 2 10 17 21 23 23 23 18 13 5 358 351 346 342 340 340 338 333 326 318 313 310 308 302 297 296 298 306 313 319 323 331 346 1 11 15 17 19 17 12 360 333 307 285 268 261 258 261 260 258 257 259 261 263 264 266 268 270 271 271
342 342 342 345 352 358 4 11 18 23 25 25 24 23 21 19 16 13 9 5 360 354 347 340 335 329 325 321 324 328 328 324 315 310 310 315 322 326 328 331 346 1 10 15 17 16 15 17 17 14 297 266 262 254 250 250 257 262 266 268 270 270 271 270 271 272 272 272 271
350 352 357 4 13 19 23 27 29 29 28 27 26 26 24 22 20 19 17 14 9 1 353 346 344 342 341 344 350 351 346 335 327 325 329 333 336 338 341 346 2 11 16 18 14 8 2 358 350 335 299 260 255 254 252 251 258 264 271 276 279 280 279 277 274 272 271 270 270
5 12 20 26 30 33 34 35 35 34 34 33 33 32 31 28 27 26 25 23 17 11 5 0 359 357 357 359 3 1 354 340 335 338 341 345 348 350 352 355 4 10 12 10 7 360 350 335 322 308 293 277 269 262 258 253 255 260 268 274 278 281 282 281 277 273 270 270 270
26 34 39 41 42 42 42 42 42 42 41 40 40 39 37 34 33 32 30 27 21 17 14 12 9 6 3 3 4 2 358 350 347 346 347 347 350 351 351 351 355 355 351 346 340 332 318 303 296 290 285 283 276 271 265 262 257 257 262 266 271 275 278 280 281 281 280 278 277
45 47 48 49 49 49 48 47 47 47 46 45 44 43 42 39 37 34 31 26 21 18 16 15 10 5 359 358 357 356 353 349 346 345 344 343 342 341 339 334 331 323 313 308 305 302 300 298 298 295 290 286 281 278 277 279 273 264 259 259 263 266 272 278 284 287 289 287 286
54 54 53 53 52 51 49 48 48 48 48 47 45 45 44 42 38 33 28 24 20 17 13 9 2 355 349 347 346 344 342 339 337 336 334 332 328 324 319 312 306 298 292 294 300 304 308 311 312 312 311 302 293 283 278 282 280 272 262 258 263 268 273 278 284 287 289 290 290
60 58 56 54 52 50 48 47 46 45 46 47 43 41 38 36 32 28 24 21 19 14 6 356 347 342 338 336 334 333 332 331 329 326 322 318 313 308 304 299 294 290 292 302 312 318 321 323 325 325 323 319 311 290 268 267 272 275 274 272 274 277 280 282 285 287 289 290 291
63 61 58 56 52 48 45 44 42 39 36 38 35 30 26 24 21 18 16 13 10 3 353 339 337 335 333 330 328 327 325 322 318 313 308 305 302 298 293 289 288 294 307 322 327 329 331 332 333 332 329 329 325 302 266 259 272 279 282 282 282 282 283 285 287 289 289 291 291
67 64 62 60 54 48 42 39 35 28 22 19 20 20 18 16 12 10 6 1 353 344 336 332 330 327 322 319 316 312 308 306 304 302 302 301 298 296 294 293 299 311 326 335 336 337 338 339 338 335 332 329 322 293 262 264 272 279 282 284 285 287 288 289 290 290 290 290 289
71 68 65 62 55 45 34 26 19 15 11 10 12 12 12 11 5 1 357 350 340 334 330 327 323 318 313 310 305 302 301 300 301 303 305 307 306 305 305 306 316 327 337 341 342 343 343 341 338 334 328 323 313 288 266 269 274 279 282 284 285 287 288 290 290 290 290 288 287
69 64 61 55 43 27 13 7 4 3 4 7 9 8 6 3 357 353 349 343 334 328 323 319 316 314 312 310 310 310 310 310 312 315 318 319 316 315 315 317 328 341 346 347 347 346 343 338 333 327 321 315 306 290 277 276 278 281 284 285 286 286 286 286 286 286 286 285 284
360 23 28 29 17 7 0 358 358 359 2 5 6 4 360 354 349 346 341 335 328 322 317 314 312 311 310 312 315 319 322 324 325 329 330 330 326 325 326 331 344 352 353 350 348 344 339 333 327 321 315 310 302 293 286 284 283 284 285 286 287 287 286 284 283 282 281 281 280
300 343 3 10 7 3 0 360 359 360 2 3 0 357 352 347 342 339 336 331 324 319 316 315 313 312 312 316 320 324 327 329 329 332 334 336 334 333 335 340 348 353 352 349 346 340 335 328 322 317 312 306 299 293 290 288 287 287 288 288 288 287 286 283 281 280 279 278 277
299 339 358 4 3 2 360 357 356 358 359 359 353 348 344 340 336 335 334 330 323 320 319 319 318 320 322 326 327 329 331 331 329 331 335 340 340 340 341 343 346 348 348 345 341 336 330 324 319 314 310 304 297 293 290 289 288 289 289 289 289 288 286 284 281 279 278 277 276
305 345 358 360 360 357 354 351 351 352 353 352 347 343 339 336 333 335 336 333 326 323 322 321 323 326 330 331 328 328 330 332 330 331 335 342 344 343 340 339 341 342 341 339 335 331 326 321 316 313 309 302 297 294 292 290 289 290 290 290 290 290 290 287 284 281 278 275 274
329 353 358 358 353 348 345 342 345 346 346 344 342 340 338 335 333 336 339 337 329 324 322 321 324 327 329 327 322 322 325 330 332 333 335 342 344 341 336 332 334 334 333 331 328 324 321 318 314 312 309 302 299 296 295 294 293 293 294 295 294 294 293 291 288 284 280 276 273
340 354 356 353 345 339 335 335 339 341 342 341 340 339 339 337 335 337 338 335 328 322 319 318 321 323 325 322 317 316 319 325 333 336 337 339 337 333 329 326 325 324 323 322 320 318 317 315 314 313 310 303 300 298 296 297 297 297 297 296 296 296 295 293 291 288 285 281 278
336 347 348 344 337 331 328 328 333 337 340 340 339 339 338 336 332 331 330 326 323 319 315 313 315 317 318 317 312 312 314 320 332 340 340 336 328 324 322 320 317 316 315 314 314 314 314 314 314 314 313 306 302 299 298 299 298 297 296 296 297 298 298 298 296 293 291 288 284
337 343 342 336 331 327 324 324 328 333 339 341 340 337 334 329 324 323 323 321 320 317 312 308 310 311 312 310 307 310 315 319 328 337 339 331 323 320 318 314 311 310 310 310 311 312 313 314 315 316 315 310 305 302 300 299 297 297 299 301 303 303 302 301 299 296 293 290 288